• In Hungary
  • List of Countries
  • For 7 days
  • Water Temperature
  • Satellite Maps
  • Weather Map
  • News
  • Weather Widgets
  • user-avatar
    Login

    Hourly Weather Penonomé

    Today, 23 August, Wednesday

    Time Temperature Precipitation Wind Pressure Humidity
    00:00 +27°C° 0.1 mm 2 mps 749 mmHg 87%
    01:00 +27°C° 0.1 mm 2 mps 749 mmHg 87%
    02:00 +26°C° 0 mm 2 mps 748 mmHg 87%
    03:00 +26°C° 0 mm 2 mps 748 mmHg 87%
    04:00 +26°C° 0 mm 2 mps 748 mmHg 87%
    05:00 +26°C° 0.2 mm 2 mps 748 mmHg 87%
    06:00 +26°C° 0.2 mm 2 mps 748 mmHg 86%
    07:00 +27°C° 0.2 mm 2 mps 748 mmHg 86%
    08:00 +28°C° 0.3 mm 2 mps 749 mmHg 80%
    09:00 +30°C° 0.3 mm 2 mps 749 mmHg 73%
    10:00 +31°C° 0.3 mm 3 mps 749 mmHg 67%
    11:00 +32°C° 1.3 mm 2 mps 749 mmHg 66%
    12:00 +32°C° 1.3 mm 2 mps 749 mmHg 65%
    13:00 +34°C° 1.3 mm 2 mps 748 mmHg 64%
    14:00 +32°C° 2.8 mm 2 mps 748 mmHg 70%
    15:00 +30°C° 2.8 mm 2 mps 747 mmHg 75%
    16:00 +29°C° 2.8 mm 1 mps 747 mmHg 81%
    17:00 +28°C° 1.2 mm 1 mps 747 mmHg 84%
    18:00 +28°C° 1.2 mm 2 mps 747 mmHg 86%
    19:00 +27°C° 1.2 mm 2 mps 748 mmHg 89%
    20:00 +27°C° 0.1 mm 2 mps 748 mmHg 89%
    21:00 +26°C° 0.1 mm 2 mps 748 mmHg 90%
    22:00 +26°C° 0.1 mm 2 mps 749 mmHg 91%
    23:00 +26°C° 0 mm 2 mps 749 mmHg 91%

    Tomorrow, 24 August, Thursday

    Time Temperature Precipitation Wind Pressure Humidity
    00:00 +26°C° 0 mm 3 mps 748 mmHg 91%
    01:00 +26°C° 0 mm 3 mps 748 mmHg 92%
    02:00 +26°C° 0.1 mm 3 mps 748 mmHg 92%
    03:00 +25°C° 0.1 mm 2 mps 748 mmHg 92%
    04:00 +25°C° 0.1 mm 2 mps 747 mmHg 92%
    05:00 +26°C° 0.1 mm 2 mps 748 mmHg 91%
    06:00 +26°C° 0.1 mm 2 mps 748 mmHg 91%
    07:00 +26°C° 0.1 mm 2 mps 748 mmHg 90%
    08:00 +27°C° 0.7 mm 2 mps 749 mmHg 87%
    09:00 +28°C° 0.7 mm 2 mps 749 mmHg 84%
    10:00 +28°C° 0.7 mm 2 mps 750 mmHg 81%
    11:00 +29°C° 1.4 mm 2 mps 749 mmHg 78%
    12:00 +30°C° 1.4 mm 2 mps 749 mmHg 75%
    13:00 +30°C° 1.4 mm 2 mps 749 mmHg 72%
    14:00 +30°C° 1.6 mm 2 mps 748 mmHg 76%
    15:00 +29°C° 1.6 mm 2 mps 748 mmHg 79%
    16:00 +28°C° 1.6 mm 3 mps 747 mmHg 82%
    17:00 +28°C° 0.4 mm 3 mps 747 mmHg 85%
    18:00 +27°C° 0.4 mm 3 mps 748 mmHg 88%
    19:00 +26°C° 0.4 mm 2 mps 748 mmHg 91%
    20:00 +26°C° 0.1 mm 2 mps 748 mmHg 91%
    21:00 +26°C° 0.1 mm 2 mps 749 mmHg 91%
    22:00 +26°C° 0.1 mm 2 mps 749 mmHg 91%
    23:00 +25°C° 0 mm 2 mps 749 mmHg 91%

    Day after tomorrow, 25 August, Friday

    Time Temperature Precipitation Wind Pressure Humidity
    00:00 +25°C° 0 mm 2 mps 749 mmHg 91%
    01:00 +25°C° 0 mm 2 mps 749 mmHg 91%
    02:00 +25°C° 0 mm 2 mps 749 mmHg 91%
    03:00 +25°C° 0 mm 2 mps 748 mmHg 90%
    04:00 +25°C° 0 mm 2 mps 748 mmHg 89%
    05:00 +25°C° 0 mm 2 mps 748 mmHg 89%
    06:00 +26°C° 0 mm 2 mps 749 mmHg 88%
    07:00 +26°C° 0 mm 1 mps 749 mmHg 88%
    08:00 +27°C° 0 mm 1 mps 750 mmHg 82%
    09:00 +29°C° 0 mm 1 mps 750 mmHg 77%
    10:00 +30°C° 0 mm 1 mps 751 mmHg 71%
    11:00 +31°C° 1.1 mm 1 mps 750 mmHg 70%
    12:00 +31°C° 1.1 mm 1 mps 750 mmHg 69%
    13:00 +32°C° 1.1 mm 1 mps 750 mmHg 68%
    14:00 +31°C° 2.2 mm 1 mps 749 mmHg 72%
    15:00 +30°C° 2.2 mm 1 mps 749 mmHg 77%
    16:00 +29°C° 2.2 mm 1 mps 748 mmHg 82%
    17:00 +28°C° 0.9 mm 1 mps 748 mmHg 84%
    18:00 +27°C° 0.9 mm 1 mps 749 mmHg 87%
    19:00 +27°C° 0.9 mm 2 mps 749 mmHg 90%
    20:00 +26°C° 0.1 mm 2 mps 750 mmHg 90%
    21:00 +26°C° 0.1 mm 2 mps 750 mmHg 90%
    22:00 +26°C° 0.1 mm 2 mps 750 mmHg 89%
    23:00 +26°C° 0.1 mm 2 mps 750 mmHg 89%

    26 August, Saturday

    Time Temperature Precipitation Wind Pressure Humidity
    00:00 +26°C° 0.1 mm 2 mps 750 mmHg 89%
    01:00 +25°C° 0.1 mm 2 mps 750 mmHg 89%
    02:00 +25°C° 0 mm 2 mps 749 mmHg 89%
    03:00 +25°C° 0 mm 2 mps 749 mmHg 89%
    04:00 +25°C° 0 mm 2 mps 749 mmHg 89%
    05:00 +25°C° 0 mm 2 mps 749 mmHg 88%
    06:00 +25°C° 0 mm 2 mps 749 mmHg 88%
    07:00 +25°C° 0 mm 2 mps 750 mmHg 88%
    08:00 +27°C° 0 mm 2 mps 750 mmHg 82%
    09:00 +29°C° 0 mm 2 mps 750 mmHg 76%
    10:00 +30°C° 0 mm 2 mps 751 mmHg 71%
    11:00 +31°C° 0.6 mm 2 mps 750 mmHg 69%
    12:00 +31°C° 0.6 mm 2 mps 750 mmHg 67%
    13:00 +32°C° 0.6 mm 2 mps 749 mmHg 66%
    14:00 +31°C° 0.9 mm 3 mps 749 mmHg 69%
    15:00 +30°C° 0.9 mm 3 mps 748 mmHg 72%
    16:00 +30°C° 0.9 mm 3 mps 748 mmHg 75%
    17:00 +29°C° 0.2 mm 3 mps 748 mmHg 78%
    18:00 +28°C° 0.2 mm 3 mps 749 mmHg 80%
    19:00 +27°C° 0.2 mm 2 mps 749 mmHg 83%
    20:00 +27°C° 0.1 mm 2 mps 749 mmHg 83%
    21:00 +26°C° 0.1 mm 2 mps 750 mmHg 83%
    22:00 +26°C° 0.1 mm 2 mps 750 mmHg 83%
    23:00 +26°C° 0 mm 2 mps 750 mmHg 83%

    27 August, Sunday

    Time Temperature Precipitation Wind Pressure Humidity
    00:00 +26°C° 0 mm 2 mps 749 mmHg 83%
    01:00 +26°C° 0 mm 2 mps 749 mmHg 83%
    02:00 +26°C° 0 mm 2 mps 749 mmHg 84%
    03:00 +26°C° 0 mm 2 mps 748 mmHg 84%
    04:00 +25°C° 0 mm 2 mps 748 mmHg 84%
    05:00 +26°C° 0.1 mm 2 mps 749 mmHg 85%
    06:00 +26°C° 0.1 mm 2 mps 749 mmHg 85%
    07:00 +26°C° 0.1 mm 1 mps 749 mmHg 86%
    08:00 +27°C° 0.2 mm 1 mps 750 mmHg 83%
    09:00 +28°C° 0.2 mm 1 mps 750 mmHg 79%
    10:00 +29°C° 0.2 mm 1 mps 750 mmHg 76%
    11:00 +29°C° 0.5 mm 1 mps 750 mmHg 76%
    12:00 +29°C° 0.5 mm 1 mps 749 mmHg 75%
    13:00 +30°C° 0.5 mm 1 mps 749 mmHg 75%
    14:00 +30°C° 0.6 mm 1 mps 748 mmHg 76%
    15:00 +29°C° 0.6 mm 1 mps 748 mmHg 77%
    16:00 +29°C° 0.6 mm 1 mps 747 mmHg 78%
    17:00 +28°C° 0.3 mm 1 mps 748 mmHg 81%
    18:00 +28°C° 0.3 mm 1 mps 748 mmHg 85%
    19:00 +27°C° 0.3 mm 1 mps 748 mmHg 88%
    20:00 +27°C° 0.1 mm 1 mps 749 mmHg 89%
    21:00 +26°C° 0.1 mm 1 mps 749 mmHg 89%
    22:00 +26°C° 0.1 mm 1 mps 749 mmHg 90%
    23:00 +26°C° 0.1 mm 1 mps 749 mmHg 90%

    28 August, Monday

    Time Temperature Precipitation Wind Pressure Humidity
    00:00 +26°C° 0.1 mm 1 mps 749 mmHg 90%
    01:00 +25°C° 0.1 mm 2 mps 749 mmHg 90%
    02:00 +25°C° 0.1 mm 2 mps 748 mmHg 90%
    03:00 +25°C° 0.1 mm 1 mps 748 mmHg 90%
    04:00 +25°C° 0.1 mm 1 mps 748 mmHg 90%
    05:00 +25°C° 0 mm 1 mps 748 mmHg 89%
    06:00 +26°C° 0 mm 1 mps 749 mmHg 88%
    07:00 +26°C° 0 mm 1 mps 749 mmHg 87%
    08:00 +27°C° 0 mm 1 mps 749 mmHg 81%
    09:00 +29°C° 0 mm 1 mps 749 mmHg 75%
    10:00 +28°C° 0 mm 0 mps 750 mmHg 69%
    11:00 +30°C° 0.3 mm 1 mps 749 mmHg 67%
    12:00 +31°C° 0.3 mm 1 mps 749 mmHg 66%
    13:00 +31°C° 0.3 mm 1 mps 748 mmHg 65%
    14:00 +31°C° 0.3 mm 1 mps 748 mmHg 67%
    15:00 +30°C° 0.3 mm 1 mps 748 mmHg 69%
    16:00 +30°C° 0.3 mm 1 mps 747 mmHg 71%
    17:00 +29°C° 0.6 mm 1 mps 748 mmHg 76%
    18:00 +28°C° 0.6 mm 1 mps 748 mmHg 80%
    19:00 +27°C° 0.6 mm 1 mps 749 mmHg 84%
    20:00 +27°C° 0.2 mm 1 mps 749 mmHg 85%
    21:00 +27°C° 0.2 mm 1 mps 749 mmHg 87%
    22:00 +26°C° 0.2 mm 1 mps 750 mmHg 88%
    23:00 +26°C° 0.1 mm 1 mps 749 mmHg 88%
    Show more